sat.trackr.live / text

‹ back to catalog

STARLINK-31556

NORAD 59544 · 2024-074L

PAYLOAD ACTIVE UNKNOWN

§ Identity

Operator
Country
US
Launch date
2024-04-18
Launch site
AFETR
Launch vehicle
Mass (kg)
RCS (m²)

Purposes: comms

External: N2YO · Heavens-Above · Gunter

§ Orbital elements

Epoch: 2026-05-24T17:48:31.929408Z

Period
94.27 min
Inclination
43.0025°
Eccentricity
0.0000876
Mean motion
15.27559687 rev/d
Perigee alt
482.5 km
Apogee alt
483.7 km
Semi-major
6,861.2 km
B*
8.9392e-5
RAAN
274.1907°
Arg perigee
280.8965°
Mean anomaly
79.1788°
Rev number
11,764

§ Raw data

STARLINK-315561 59544U 24074L   26144.74203622  .00002197  00000+0  89392-4 0  99902 59544  43.0025 274.1907 0000876 280.8965  79.1788 15.27559687117646

JSON: /api/v1/satellites/59544 · /tle

For live sub-satellite position, see the globe view (requires WebGL).

§ Visibility from observer

Set your observer location to see the next 7 days of passes ≥ 10°. The values pass through the URL so the page stays shareable.

No JS? Fill the form by hand. The geolocation button needs JavaScript.